SKYSAT-C9 (42989 NORAD) Tracking and Keplerian Element Data

This shows tracking and keplerian element data for the satellite.

Feedback or suggestion? Click here.




ElementValue
Catalog42989
NameSKYSAT-C9
Epoch Orbit40617
Epoch Day34.3420841
Epoch Year2025
RAAN163.6975
Inclination97.3789
Eccentricity0.0008994
Argument of Perigee132.539
Mean Anonmoly227.6614
Mean Motion15.33823995
Decay Rate0.00024149
L11 42989U 17068C 25034.34208410 .00024149 00000+0 73826-3 0 9998
L22 42989 97.3789 163.6975 0008994 132.5390 227.6614 15.33823995406171



Live tracking and technical data element details for SKYSAT-C9 (NORAD 42989). SKYSAT-C9 can be tracked NOW for your location showing map with azimuth and elevation plus other details from your city location.







IsCatalogInMostPopularTable: catalog: 42989, numindb: 608
Update: records affected: 1



GetName: 42989 SKYSAT-C9

Hit Count: updated at: Thu, 15 May 2025 18:26:57 GMT